Time,TemperatureF,DewpointF,PressureIn,WindDirection,WindDirectionDegrees,WindSpeedMPH,WindSpeedGustMPH,Humidity,HourlyPrecipIn,Conditions,Clouds,dailyrainin,SoftwareType,DateUTC
2013-02-19 00:02:00,29.0,25.0,29.40,NW,323,0.0,0.0,85,0.00,,,0.00,,2013-02-19 05:02:00,
2013-02-19 00:12:00,29.0,25.0,29.40,NW,323,0.0,0.0,85,0.00,,,0.00,,2013-02-19 05:12:00,
2013-02-19 00:22:00,29.0,25.0,29.40,NW,323,0.0,0.0,85,0.00,,,0.00,,2013-02-19 05:22:00,
2013-02-19 00:32:00,29.0,25.0,29.40,NW,313,0.0,0.0,85,0.00,,,0.00,,2013-02-19 05:32:00,
2013-02-19 00:43:00,29.0,25.0,29.40,NW,313,0.0,0.0,85,0.00,,,0.00,,2013-02-19 05:43:00,
2013-02-19 00:52:00,29.0,25.0,29.39,West,280,0.0,0.0,86,0.00,,,0.00,,2013-02-19 05:52:00,
2013-02-19 01:02:00,29.0,25.0,29.39,NW,314,0.0,0.0,86,0.00,,,0.00,,2013-02-19 06:02:00,
2013-02-19 01:11:00,29.0,25.0,29.39,NW,314,0.0,0.0,86,0.00,,,0.00,,2013-02-19 06:11:00,
2013-02-19 01:21:00,29.0,25.0,29.38,NW,316,0.0,0.0,86,0.00,,,0.00,,2013-02-19 06:21:00,
2013-02-19 01:32:00,29.0,25.0,29.38,NW,315,0.0,0.0,86,0.00,,,0.00,,2013-02-19 06:32:00,
2013-02-19 01:42:00,29.0,25.0,29.38,NW,315,0.0,0.0,86,0.00,,,0.00,,2013-02-19 06:42:00,
2013-02-19 01:52:00,29.0,25.0,29.38,NW,315,0.0,0.0,86,0.00,,,0.00,,2013-02-19 06:52:00,
2013-02-19 02:01:00,29.0,25.0,29.37,NW,314,12.0,49.0,86,0.00,,,0.00,,2013-02-19 07:01:00,
2013-02-19 02:11:00,29.0,25.0,29.37,NW,314,12.0,49.0,86,0.00,,,0.00,,2013-02-19 07:11:00,
2013-02-19 02:22:00,29.0,25.0,29.36,WNW,292,0.0,14.0,86,0.00,,,0.00,,2013-02-19 07:22:00,
2013-02-19 02:32:00,29.0,25.0,29.36,WNW,292,0.0,14.0,86,0.00,,,0.00,,2013-02-19 07:32:00,
2013-02-19 02:42:00,29.0,25.0,29.36,WNW,292,0.0,14.0,86,0.00,,,0.00,,2013-02-19 07:42:00,
2013-02-19 02:52:00,29.0,25.0,29.36,WNW,292,0.0,14.0,86,0.00,,,0.00,,2013-02-19 07:52:00,
2013-02-19 03:01:00,28.0,24.0,29.36,WNW,292,0.0,0.0,86,0.00,,,0.00,,2013-02-19 08:01:00,
2013-02-19 03:11:00,28.0,24.0,29.36,WNW,292,0.0,0.0,86,0.00,,,0.00,,2013-02-19 08:11:00,
2013-02-19 03:21:00,28.0,24.0,29.36,WNW,292,0.0,0.0,86,0.00,,,0.00,,2013-02-19 08:21:00,
2013-02-19 03:31:00,26.0,22.0,29.38,WNW,284,2.0,43.0,84,0.00,,,0.00,,2013-02-19 08:31:00,
2013-02-19 03:42:00,26.0,22.0,29.38,WNW,284,2.0,43.0,84,0.00,,,0.00,,2013-02-19 08:42:00,
2013-02-19 03:52:00,25.0,21.0,29.37,WNW,303,0.0,49.0,84,0.00,,,0.00,,2013-02-19 08:52:00,
2013-02-19 04:01:00,24.0,20.0,29.37,NW,315,0.0,56.0,84,0.00,,,0.00,,2013-02-19 09:01:00,
2013-02-19 04:11:00,24.0,20.0,29.37,NW,315,0.0,56.0,84,0.00,,,0.00,,2013-02-19 09:11:00,
2013-02-19 04:21:00,23.0,19.0,29.38,WNW,292,0.0,53.0,83,0.00,,,0.00,,2013-02-19 09:21:00,
2013-02-19 04:32:00,22.0,18.0,29.38,NNW,334,0.0,54.0,83,0.00,,,0.00,,2013-02-19 09:32:00,
2013-02-19 04:53:00,22.0,18.0,29.37,WNW,296,4.0,58.0,83,0.00,,,0.00,,2013-02-19 09:53:00,
2013-02-19 05:01:00,21.0,17.0,29.37,WNW,297,0.0,44.0,83,0.00,,,0.00,,2013-02-19 10:01:00,
2013-02-19 05:11:00,21.0,17.0,29.37,WNW,297,0.0,44.0,83,0.00,,,0.00,,2013-02-19 10:11:00,
2013-02-19 05:21:00,21.0,17.0,29.38,WNW,292,47.0,54.0,83,0.00,,,0.00,,2013-02-19 10:21:00,
2013-02-19 05:31:00,21.0,17.0,29.38,WNW,292,47.0,54.0,83,0.00,,,0.00,,2013-02-19 10:31:00,
2013-02-19 05:42:00,21.0,17.0,29.38,WNW,292,47.0,54.0,83,0.00,,,0.00,,2013-02-19 10:42:00,
2013-02-19 05:52:00,21.0,17.0,29.38,WNW,292,47.0,54.0,83,0.00,,,0.00,,2013-02-19 10:52:00,
2013-02-19 06:01:00,20.0,16.0,29.37,WNW,294,0.0,0.0,83,0.00,,,0.00,,2013-02-19 11:01:00,
2013-02-19 06:11:00,20.0,16.0,29.37,WNW,294,0.0,0.0,83,0.00,,,0.00,,2013-02-19 11:11:00,
2013-02-19 06:22:00,20.0,16.0,29.38,WNW,294,0.0,0.0,83,0.00,,,0.00,,2013-02-19 11:22:00,
2013-02-19 06:32:00,20.0,16.0,29.38,WNW,294,0.0,0.0,83,0.00,,,0.00,,2013-02-19 11:32:00,
2013-02-19 06:42:00,20.0,16.0,29.38,WNW,294,0.0,0.0,83,0.00,,,0.00,,2013-02-19 11:42:00,
2013-02-19 06:52:00,20.0,16.0,29.39,WNW,292,0.0,0.0,85,0.00,,,0.00,,2013-02-19 11:52:00,
2013-02-19 07:01:00,20.0,16.0,29.40,West,270,0.0,0.0,85,0.00,,,0.00,,2013-02-19 12:01:00,
2013-02-19 07:12:00,20.0,16.0,29.40,West,270,0.0,0.0,85,0.00,,,0.00,,2013-02-19 12:12:00,
2013-02-19 07:22:00,20.0,16.0,29.40,NNW,332,0.0,0.0,85,0.00,,,0.00,,2013-02-19 12:22:00,
2013-02-19 07:32:00,20.0,16.0,29.41,NNW,330,0.0,0.0,85,0.00,,,0.00,,2013-02-19 12:32:00,
2013-02-19 07:42:00,20.0,16.0,29.41,NNW,330,0.0,0.0,85,0.00,,,0.00,,2013-02-19 12:42:00,
2013-02-19 07:52:00,20.0,16.0,29.42,WNW,292,0.0,0.0,85,0.00,,,0.00,,2013-02-19 12:52:00,
2013-02-19 08:02:00,20.0,16.0,29.43,NW,305,0.0,0.0,85,0.00,,,0.00,,2013-02-19 13:02:00,
2013-02-19 08:11:00,20.0,16.0,29.43,NW,305,0.0,0.0,85,0.00,,,0.00,,2013-02-19 13:11:00,
2013-02-19 08:22:00,20.0,16.0,29.43,NW,305,0.0,0.0,85,0.00,,,0.00,,2013-02-19 13:22:00,
2013-02-19 08:32:00,19.0,15.0,29.45,WNW,297,0.0,0.0,85,0.00,,,0.00,,2013-02-19 13:32:00,
2013-02-19 08:41:00,19.0,15.0,29.45,WNW,297,0.0,0.0,85,0.00,,,0.00,,2013-02-19 13:41:00,
2013-02-19 08:52:00,19.0,15.0,29.46,WNW,292,0.0,56.0,85,0.00,,,0.00,,2013-02-19 13:52:00,
2013-02-19 09:01:00,19.0,15.0,29.46,WNW,292,0.0,56.0,85,0.00,,,0.00,,2013-02-19 14:01:00,
2013-02-19 09:11:00,19.0,15.0,29.46,WNW,292,0.0,56.0,85,0.00,,,0.00,,2013-02-19 14:11:00,
2013-02-19 09:21:00,18.0,14.0,29.48,WNW,294,39.0,58.0,85,0.00,,,0.00,,2013-02-19 14:21:00,
2013-02-19 09:32:00,17.0,13.0,29.49,WNW,294,1.0,53.0,85,0.00,,,0.00,,2013-02-19 14:32:00,
2013-02-19 09:42:00,17.0,13.0,29.49,WNW,294,1.0,53.0,85,0.00,,,0.00,,2013-02-19 14:42:00,
2013-02-19 09:52:00,17.0,13.0,29.49,WNW,292,0.0,58.0,85,0.00,,,0.00,,2013-02-19 14:52:00,
2013-02-19 10:01:00,17.0,13.0,29.50,NW,315,0.0,0.0,85,0.00,,,0.00,,2013-02-19 15:01:00,
2013-02-19 10:11:00,17.0,13.0,29.50,NW,315,0.0,0.0,85,0.00,,,0.00,,2013-02-19 15:11:00,
2013-02-19 10:21:00,17.0,13.0,29.52,WNW,296,0.0,35.0,85,0.00,,,0.00,,2013-02-19 15:21:00,
2013-02-19 10:31:00,16.0,12.0,29.52,NW,317,0.0,0.0,85,0.00,,,0.00,,2013-02-19 15:31:00,
2013-02-19 10:42:00,16.0,12.0,29.52,NW,317,0.0,0.0,85,0.00,,,0.00,,2013-02-19 15:42:00,
2013-02-19 10:52:00,16.0,12.0,29.52,WNW,293,0.0,16.0,84,0.00,,,0.00,,2013-02-19 15:52:00,
2013-02-19 11:01:00,16.0,12.0,29.53,North,351,6.0,56.0,84,0.00,,,0.00,,2013-02-19 16:01:00,
2013-02-19 11:11:00,16.0,12.0,29.53,North,351,6.0,56.0,84,0.00,,,0.00,,2013-02-19 16:11:00,
2013-02-19 11:21:00,16.0,12.0,29.54,WNW,294,0.0,54.0,84,0.00,,,0.00,,2013-02-19 16:21:00,
2013-02-19 11:32:00,16.0,12.0,29.55,NNW,336,0.0,0.0,84,0.00,,,0.00,,2013-02-19 16:32:00,
2013-02-19 11:41:00,16.0,12.0,29.55,NNW,336,0.0,0.0,84,0.00,,,0.00,,2013-02-19 16:41:00,
2013-02-19 11:52:00,16.0,12.0,29.55,NNW,336,0.0,0.0,84,0.00,,,0.00,,2013-02-19 16:52:00,
2013-02-19 12:01:00,15.0,11.0,29.57,NW,307,0.0,46.0,83,0.00,,,0.00,,2013-02-19 17:01:00,
2013-02-19 12:11:00,15.0,11.0,29.57,NW,307,0.0,46.0,83,0.00,,,0.00,,2013-02-19 17:11:00,
2013-02-19 12:21:00,15.0,11.0,29.59,WNW,297,0.0,0.0,83,0.00,,,0.00,,2013-02-19 17:21:00,
2013-02-19 12:32:00,15.0,11.0,29.59,WNW,292,0.0,0.0,83,0.00,,,0.00,,2013-02-19 17:32:00,
2013-02-19 12:41:00,15.0,11.0,29.59,WNW,292,0.0,0.0,83,0.00,,,0.00,,2013-02-19 17:41:00,
2013-02-19 12:52:00,15.0,11.0,29.60,WNW,293,0.0,0.0,83,0.00,,,0.00,,2013-02-19 17:52:00,
2013-02-19 13:01:00,15.0,11.0,29.60,West,270,0.0,0.0,83,0.00,,,0.00,,2013-02-19 18:01:00,
2013-02-19 13:11:00,15.0,11.0,29.60,West,270,0.0,0.0,83,0.00,,,0.00,,2013-02-19 18:11:00,
2013-02-19 13:21:00,15.0,11.0,29.62,NNW,338,0.0,0.0,83,0.00,,,0.00,,2013-02-19 18:21:00,
2013-02-19 13:31:00,15.0,11.0,29.62,NNW,338,0.0,0.0,82,0.00,,,0.00,,2013-02-19 18:31:00,
2013-02-19 13:41:00,15.0,11.0,29.62,NNW,338,0.0,0.0,82,0.00,,,0.00,,2013-02-19 18:41:00,
2013-02-19 13:52:00,15.0,11.0,29.62,NNW,338,0.0,0.0,82,0.00,,,0.00,,2013-02-19 18:52:00,
2013-02-19 14:01:00,15.0,11.0,29.64,NW,323,0.0,0.0,82,0.00,,,0.00,,2013-02-19 19:01:00,
2013-02-19 14:11:00,15.0,11.0,29.64,NW,323,0.0,0.0,82,0.00,,,0.00,,2013-02-19 19:11:00,
2013-02-19 14:21:00,14.0,9.0,29.65,WNW,292,0.0,0.0,81,0.00,,,0.00,,2013-02-19 19:21:00,
2013-02-19 14:32:00,14.0,10.0,29.66,NW,314,0.0,0.0,82,0.00,,,0.00,,2013-02-19 19:32:00,
2013-02-19 14:41:00,14.0,10.0,29.66,NW,314,0.0,0.0,82,0.00,,,0.00,,2013-02-19 19:41:00,
2013-02-19 14:52:00,13.0,9.0,29.67,NW,319,7.0,58.0,82,0.00,,,0.00,,2013-02-19 19:52:00,
2013-02-19 15:01:00,13.0,9.0,29.68,NW,311,9.0,58.0,82,0.00,,,0.00,,2013-02-19 20:01:00,
2013-02-19 15:12:00,13.0,9.0,29.68,NW,311,9.0,58.0,82,0.00,,,0.00,,2013-02-19 20:12:00,
2013-02-19 15:21:00,13.0,9.0,29.69,NW,315,6.0,9.0,82,0.00,,,0.00,,2013-02-19 20:21:00,
2013-02-19 15:32:00,13.0,9.0,29.70,NW,309,8.0,12.0,82,0.00,,,0.00,,2013-02-19 20:32:00,
2013-02-19 15:42:00,13.0,9.0,29.70,NW,309,8.0,12.0,82,0.00,,,0.00,,2013-02-19 20:42:00,
2013-02-19 15:52:00,13.0,9.0,29.71,West,270,7.0,12.0,82,0.00,,,0.00,,2013-02-19 20:52:00,
2013-02-19 16:02:00,13.0,9.0,29.72,NW,315,5.0,13.0,82,0.00,,,0.00,,2013-02-19 21:02:00,
2013-02-19 16:11:00,13.0,9.0,29.72,NW,315,5.0,13.0,82,0.00,,,0.00,,2013-02-19 21:11:00,
2013-02-19 16:21:00,13.0,8.0,29.73,West,278,15.0,16.0,81,0.00,,,0.00,,2013-02-19 21:21:00,
2013-02-19 16:32:00,12.0,7.0,29.74,NW,315,5.0,16.0,81,0.00,,,0.00,,2013-02-19 21:32:00,
2013-02-19 16:42:00,12.0,7.0,29.74,NW,315,5.0,16.0,81,0.00,,,0.00,,2013-02-19 21:42:00,
2013-02-19 16:52:00,12.0,7.0,29.75,NW,315,7.0,9.0,81,0.00,,,0.00,,2013-02-19 21:52:00,
2013-02-19 17:02:00,12.0,7.0,29.75,NW,315,7.0,9.0,81,0.00,,,0.00,,2013-02-19 22:02:00,
2013-02-19 17:11:00,12.0,7.0,29.75,NW,315,7.0,9.0,81,0.00,,,0.00,,2013-02-19 22:11:00,
2013-02-19 17:21:00,12.0,7.0,29.78,NNW,335,10.0,13.0,81,0.00,,,0.00,,2013-02-19 22:21:00,
2013-02-19 17:32:00,12.0,7.0,29.78,NNW,335,10.0,13.0,81,0.00,,,0.00,,2013-02-19 22:32:00,
2013-02-19 17:42:00,12.0,7.0,29.78,NNW,335,10.0,13.0,81,0.00,,,0.00,,2013-02-19 22:42:00,
2013-02-19 17:52:00,11.0,7.0,29.79,NNE,22,6.0,10.0,82,0.00,,,0.00,,2013-02-19 22:52:00,
2013-02-19 18:01:00,11.0,7.0,29.79,WNW,292,6.0,10.0,82,0.00,,,0.00,,2013-02-19 23:01:00,
2013-02-19 18:11:00,11.0,7.0,29.79,WNW,292,6.0,10.0,82,0.00,,,0.00,,2013-02-19 23:11:00,
2013-02-19 18:21:00,11.0,7.0,29.79,WNW,292,6.0,10.0,82,0.00,,,0.00,,2013-02-19 23:21:00,
2013-02-19 18:32:00,11.0,7.0,29.81,NW,306,10.0,12.0,82,0.00,,,0.00,,2013-02-19 23:32:00,
2013-02-19 18:41:00,11.0,7.0,29.81,NW,306,10.0,12.0,82,0.00,,,0.00,,2013-02-19 23:41:00,
2013-02-19 18:52:00,11.0,7.0,29.82,NW,315,6.0,12.0,82,0.00,,,0.00,,2013-02-19 23:52:00,
2013-02-19 19:01:00,11.0,7.0,29.82,NW,315,6.0,12.0,82,0.00,,,0.00,,2013-02-20 00:01:00,
2013-02-19 19:11:00,11.0,7.0,29.82,NW,315,6.0,12.0,82,0.00,,,0.00,,2013-02-20 00:11:00,
2013-02-19 19:21:00,11.0,7.0,29.83,NW,315,6.0,9.0,82,0.00,,,0.00,,2013-02-20 00:21:00,
2013-02-19 19:31:00,11.0,7.0,29.84,WNW,292,6.0,13.0,82,0.00,,,0.00,,2013-02-20 00:31:00,
2013-02-19 19:42:00,11.0,7.0,29.84,WNW,292,6.0,13.0,82,0.00,,,0.00,,2013-02-20 00:42:00,
2013-02-19 19:52:00,11.0,7.0,29.84,WNW,292,6.0,13.0,82,0.00,,,0.00,,2013-02-20 00:52:00,
2013-02-19 20:02:00,11.0,7.0,29.84,WNW,292,6.0,13.0,82,0.00,,,0.00,,2013-02-20 01:02:00,
2013-02-19 20:11:00,11.0,7.0,29.84,WNW,292,6.0,13.0,82,0.00,,,0.00,,2013-02-20 01:11:00,
2013-02-19 20:22:00,12.0,8.0,29.86,NW,315,6.0,15.0,83,0.00,,,0.00,,2013-02-20 01:22:00,
2013-02-19 20:32:00,12.0,8.0,29.86,NW,315,6.0,15.0,83,0.00,,,0.00,,2013-02-20 01:32:00,
2013-02-19 20:42:00,12.0,8.0,29.86,NW,315,6.0,15.0,83,0.00,,,0.00,,2013-02-20 01:42:00,
2013-02-19 20:52:00,12.0,8.0,29.86,NW,315,6.0,15.0,83,0.00,,,0.00,,2013-02-20 01:52:00,
2013-02-19 21:01:00,12.0,8.0,29.88,NNW,338,7.0,10.0,82,0.00,,,0.00,,2013-02-20 02:01:00,
2013-02-19 21:11:00,12.0,8.0,29.88,NNW,338,7.0,10.0,82,0.00,,,0.00,,2013-02-20 02:11:00,
2013-02-19 21:21:00,12.0,8.0,29.88,NW,315,6.0,14.0,82,0.00,,,0.00,,2013-02-20 02:21:00,
2013-02-19 21:32:00,12.0,8.0,29.88,NW,315,6.0,14.0,82,0.00,,,0.00,,2013-02-20 02:32:00,
2013-02-19 21:42:00,12.0,8.0,29.88,NW,315,6.0,14.0,82,0.00,,,0.00,,2013-02-20 02:42:00,
2013-02-19 21:52:00,12.0,8.0,29.88,NW,315,6.0,14.0,82,0.00,,,0.00,,2013-02-20 02:52:00,
2013-02-19 22:01:00,12.0,8.0,29.90,NW,315,10.0,12.0,83,0.00,,,0.00,,2013-02-20 03:01:00,
2013-02-19 22:12:00,12.0,8.0,29.90,NW,315,10.0,12.0,83,0.00,,,0.00,,2013-02-20 03:12:00,
2013-02-19 22:22:00,12.0,8.0,29.90,NW,315,10.0,12.0,83,0.00,,,0.00,,2013-02-20 03:22:00,
2013-02-19 22:31:00,12.0,8.0,29.92,NNW,338,12.0,13.0,82,0.00,,,0.00,,2013-02-20 03:31:00,
2013-02-19 22:32:00,12.0,8.0,29.90,NW,315,10.0,12.0,83,0.00,,,0.00,,2013-02-20 03:32:00,
2013-02-19 22:41:00,12.0,8.0,29.90,NW,315,10.0,12.0,83,0.00,,,0.00,,2013-02-20 03:41:00,
2013-02-19 22:52:00,12.0,8.0,29.92,NNW,338,12.0,13.0,82,0.00,,,0.00,,2013-02-20 03:52:00,
2013-02-19 23:01:00,12.0,8.0,29.92,NNW,338,12.0,13.0,82,0.00,,,0.00,,2013-02-20 04:01:00,
2013-02-19 23:11:00,12.0,8.0,29.92,NNW,338,12.0,13.0,82,0.00,,,0.00,,2013-02-20 04:11:00,
2013-02-19 23:21:00,12.0,8.0,29.92,NNW,338,12.0,13.0,82,0.00,,,0.00,,2013-02-20 04:21:00,
2013-02-19 23:52:00,12.0,8.0,29.93,NW,315,5.0,15.0,82,0.00,,,0.00,,2013-02-20 04:52:00,